H1 CPF 2 NER 2023 5 3 9 123 01 glonass146 H2 2216101 9146 54377 2023 5 3 0 0 0 2023 5 6 23 45 0 900 1 1 0 0 0 1 H9 10 0 60067 0.00000 0 25170198.525 4216440.278 -528024.218 10 0 60067 900.00000 0 25062278.162 4040742.365 2682521.867 10 0 60067 1800.00000 0 24551318.285 3844674.454 5841070.686 10 0 60067 2700.00000 0 23646036.824 3683609.539 8886406.155 10 0 60067 3600.00000 0 22368202.975 3610385.413 11759510.493 10 0 60067 4500.00000 0 20751813.031 3672845.427 14404701.409 10 0 60067 5400.00000 0 18841774.296 3911595.138 16770704.648 10 0 60067 6300.00000 0 16692151.582 4358069.437 18811641.737 10 0 60067 7200.00000 0 14364048.737 5032991.770 20487914.393 10 0 60067 8100.00000 0 11923212.595 5945290.766 21766969.128 10 0 60067 9000.00000 0 9437458.067 7091520.626 22623927.776 10 0 60067 9900.00000 0 6974020.391 8455810.796 23042072.082 10 0 60067 10800.00000 0 4596943.533 10010348.544 23013173.070 10 0 60067 11700.00000 0 2364612.263 11716376.040 22537658.651 10 0 60067 12600.00000 0 327529.655 13525662.071 21624615.675 10 0 60067 13500.00000 0 -1473568.211 15382388.755 20291625.614 10 0 60067 14400.00000 0 -3009182.339 17225376.026 18564435.971 10 0 60067 15300.00000 0 -4262044.667 18990552.192 16476472.635 10 0 60067 16200.00000 0 -5227594.329 20613568.113 14068201.427 10 0 60067 17100.00000 0 -5913916.519 22032445.877 11386350.105 10 0 60067 18000.00000 0 -6341146.626 23190150.823 8483005.158 10 0 60067 18900.00000 0 -6540364.978 24036978.346 5414600.401 10 0 60067 19800.00000 0 -6552029.198 24532654.260 2240816.950 10 0 60067 20700.00000 0 -6424011.040 24648059.160 -976583.658 10 0 60067 21600.00000 0 -6209321.655 24366502.977 -4174969.771 10 0 60067 22500.00000 0 -5963622.748 23684494.853 -7292068.807 10 0 60067 23400.00000 0 -5742630.432 22611974.994 -10267190.129 10 0 60067 24300.00000 0 -5599523.225 21171998.064 -13042416.592 10 0 60067 25200.00000 0 -5582465.445 19399881.144 -15563740.457 10 0 60067 26100.00000 0 -5732352.214 17341852.111 -17782120.609 10 0 60067 27000.00000 0 -6080872.606 15053255.454 -19654439.945 10 0 60067 27900.00000 0 -6648973.676 12596391.182 -21144344.107 10 0 60067 28800.00000 0 -7445790.840 10038077.773 -22222945.313 10 0 60067 29700.00000 0 -8468090.002 7447041.392 -22869378.118 10 0 60067 30600.00000 0 -9700245.119 4891240.475 -23071196.945 10 0 60067 31500.00000 0 -11114752.091 2435237.091 -22824608.506 10 0 60067 32400.00000 0 -12673257.369 137723.996 -22134535.465 10 0 60067 33300.00000 0 -14328058.023 -1950690.596 -21014510.910 10 0 60067 34200.00000 0 -16024010.375 -3789349.592 -19486406.395 10 0 60067 35100.00000 0 -17700767.254 -5348988.876 -17579999.355 10 0 60067 36000.00000 0 -19295250.324 -6612696.212 -15332388.648 10 0 60067 36900.00000 0 -20744254.155 -7576349.191 -12787269.798 10 0 60067 37800.00000 0 -21987073.253 -8248515.994 -9994084.087 10 0 60067 38700.00000 0 -22968042.420 -8649825.108 -7007057.986 10 0 60067 39600.00000 0 -23638884.308 -8811832.187 -3884151.566 10 0 60067 40500.00000 0 -23960766.216 -8775433.230 -685936.167 10 0 60067 41400.00000 0 -23905980.160 -8588891.980 2525577.007 10 0 60067 42300.00000 0 -23459176.092 -8305565.555 5688134.804 10 0 60067 43200.00000 0 -22618096.845 -7981424.703 8740443.464 10 0 60067 44100.00000 0 -21393783.946 -7672473.493 11623350.465 10 0 60067 45000.00000 0 -19810245.539 -7432177.286 14280984.305 10 0 60067 45900.00000 0 -17903599.924 -7309007.306 16661830.639 10 0 60067 46800.00000 0 -15720729.786 -7344205.173 18719724.582 10 0 60067 47700.00000 0 -13317502.474 -7569861.479 20414740.541 10 0 60067 48600.00000 0 -10756629.399 -8007389.395 21713963.015 10 0 60067 49500.00000 0 -8105252.432 -8666457.888 22592123.990 10 0 60067 50400.00000 0 -5432356.370 -9544430.099 23032094.932 10 0 60067 51300.00000 0 -2806113.678 -10626331.546 23025224.000 10 0 60067 52200.00000 0 -291270.564 -11885350.895 22571511.755 10 0 60067 53100.00000 0 2053318.113 -13283853.913 21679621.474 10 0 60067 54000.00000 0 4176903.498 -14774869.829 20366723.041 10 0 60067 54900.00000 0 6038715.517 -16303989.507 18658172.411 10 0 60067 55800.00000 0 7609416.141 -17811597.251 16587031.674 10 0 60067 56700.00000 0 8872072.725 -19235343.755 14193437.791 10 0 60067 57600.00000 0 9822610.894 -20512757.003 11523831.182 10 0 60067 58500.00000 0 10469728.039 -21583881.546 8630058.282 10 0 60067 59400.00000 0 10834271.267 -22393834.756 5568364.994 10 0 60067 60300.00000 0 10948106.312 -22895171.640 2398300.507 10 0 60067 61200.00000 0 10852525.636 -23049957.402 -818446.885 10 0 60067 62100.00000 0 10596263.802 -22831459.064 -4019258.575 10 0 60067 63000.00000 0 10233205.074 -22225383.433 -7141814.548 10 0 60067 63900.00000 0 9819881.560 -21230607.964 -10125317.220 10 0 60067 64800.00000 0 9412869.233 -19859372.691 -12911685.174 10 0 60067 65700.00000 0 9066193.478 -18136924.428 -15446692.412 10 0 60067 66600.00000 0 8828855.331 -16100627.840 -17681029.985 10 0 60067 67500.00000 0 8742584.173 -13798580.613 -19571268.775 10 0 60067 68400.00000 0 8839912.707 -11287790.941 -21080704.448 10 0 60067 69300.00000 0 9142656.054 -8631993.896 -22180068.231 10 0 60067 70200.00000 0 9660859.352 -5899198.184 -22848090.191 10 0 60067 71100.00000 0 10392258.166 -3159065.753 -23071904.692 10 0 60067 72000.00000 0 11322274.204 -480233.395 -22847291.020 10 0 60067 72900.00000 0 12424546.187 2072312.586 -22178745.346 10 0 60067 73800.00000 0 13661973.217 4439700.192 -21079383.446 10 0 60067 74700.00000 0 14988226.500 6571372.611 -19570676.774 10 0 60067 75600.00000 0 16349665.733 8426936.025 -17682027.547 10 0 60067 76500.00000 0 17687579.647 9977579.149 -15450191.466 10 0 60067 77400.00000 0 18940656.618 11207007.130 -12918559.471 10 0 60067 78300.00000 0 20047581.827 12111852.898 -10136312.619 10 0 60067 79200.00000 0 20949652.182 12701550.749 -7157466.454 10 0 60067 80100.00000 0 21593299.390 12997679.254 -4039823.394 10 0 60067 81000.00000 0 21932415.577 13032802.794 -843853.388 10 0 60067 81900.00000 0 21930383.953 12848861.714 2368475.599 10 0 60067 82800.00000 0 21561729.515 12495179.955 5534894.668 10 0 60067 83700.00000 0 20813320.579 12026174.743 8594035.663 10 0 60067 84600.00000 0 19685070.666 11498865.232 11486614.445 10 0 60067 85500.00000 0 18190111.061 10970285.153 14156573.164 10 0 60068 0.00000 0 16354426.443 10494908.414 16552159.777 10 0 60068 900.00000 0 14215967.002 10122195.581 18626925.683 10 0 60068 1800.00000 0 11823275.682 9894364.903 20340619.669 10 0 60068 2700.00000 0 9233683.256 9844480.602 21659965.757 10 0 60068 3600.00000 0 6511147.349 9994939.454 22559307.210 10 0 60068 4500.00000 0 3723822.874 10356419.267 23021105.898 10 0 60068 5400.00000 0 941463.449 10927334.034 23036287.301 10 0 60068 6300.00000 0 -1767239.770 11693819.559 22604424.301 10 0 60068 7200.00000 0 -4337272.591 12630251.378 21733755.703 10 0 60068 8100.00000 0 -6709758.120 13700274.608 20441038.358 10 0 60068 9000.00000 0 -8834161.461 14858304.001 18751234.699 10 0 60068 9900.00000 0 -10670147.513 16051432.554 16697040.555 10 0 60068 10800.00000 0 -12189014.729 17221669.648 14318261.198 10 0 60068 11700.00000 0 -13374645.064 18308415.341 11661046.591 10 0 60068 12600.00000 0 -14223930.342 19251066.976 8776999.839 10 0 60068 13500.00000 0 -14746657.220 19991648.121 5722175.600 10 0 60068 14400.00000 0 -14964855.746 20477348.279 2555987.814 10 0 60068 15300.00000 0 -14911639.282 20662865.168 -659951.695 10 0 60068 16200.00000 0 -14629585.382 20512449.318 -3863040.453 10 0 60068 17100.00000 0 -14168726.889 20001563.183 -6990913.913 10 0 60068 18000.00000 0 -13584239.345 19118083.274 -9982670.219 10 0 60068 18900.00000 0 -12933923.828 17862993.276 -12780066.071 10 0 60068 19800.00000 0 -12275593.083 16250537.878 -15328659.275 10 0 60068 20700.00000 0 -11664472.819 14307830.089 -17578874.762 10 0 60068 21600.00000 0 -11150729.155 12073928.101 -19486972.739 10 0 60068 22500.00000 0 -10777227.519 9598420.230 -21015899.867 10 0 60068 23400.00000 0 -10577618.109 6939577.215 -22136007.005 10 0 60068 24300.00000 0 -10574828.827 4162149.200 -22825620.002 10 0 60068 25200.00000 0 -10780028.986 1334899.365 -23071453.101 10 0 60068 26100.00000 0 -11192107.008 -1472023.068 -22868857.761 10 0 60068 27000.00000 0 -11797683.459 -4189761.413 -22221902.903 10 0 60068 27900.00000 0 -12571658.191 -6753370.884 -21143285.878 10 0 60068 28800.00000 0 -13478267.909 -9104270.687 -19654076.571 10 0 60068 29700.00000 0 -14472609.127 -11192428.093 -17783300.186 10 0 60068 30600.00000 0 -15502562.039 -12978185.043 -15567367.151 10 0 60068 31500.00000 0 -16511034.174 -14433652.941 -13049361.485 10 0 60068 32400.00000 0 -17438429.353 -15543619.263 -10278201.518 10 0 60068 33300.00000 0 -18225238.129 -16305929.980 -7307689.238 10 0 60068 34200.00000 0 -18814640.902 -16731333.660 -4195466.737 10 0 60068 35100.00000 0 -19155014.296 -16842795.409 -1001899.865 10 0 60068 36000.00000 0 -19202235.514 -16674310.909 2211089.348 10 0 60068 36900.00000 0 -18921687.962 -16269271.626 5381218.960 10 0 60068 37800.00000 0 -18289883.816 -15678450.791 8447049.082 10 0 60068 38700.00000 0 -17295635.286 -14957695.414 11349166.542 10 0 60068 39600.00000 0 -15940725.092 -14165421.676 14031329.636 10 0 60068 40500.00000 0 -14240047.485 -13360019.041 16441551.324 10 0 60068 41400.00000 0 -12221213.066 -12597272.016 18533100.478 10 0 60068 42300.00000 0 -9923632.855 -11927907.614 20265402.439 10 0 60068 43200.00000 0 -7397118.474 -11395371.160 21604822.091 10 0 60068 44100.00000 0 -4700055.169 -11033923.560 22525314.885 10 0 60068 45000.00000 0 -1897222.072 -10867139.791 23008933.565 10 0 60068 45900.00000 0 942651.480 -10906871.729 23046180.981 10 0 60068 46800.00000 0 3749493.742 -11152719.284 22636201.971 10 0 60068 47700.00000 0 6454555.662 -11592032.738 21786810.149 10 0 60068 48600.00000 0 8993023.917 -12200447.178 20514348.279 10 0 60068 49500.00000 0 11306474.249 -12942927.690 18843383.914 10 0 60068 50400.00000 0 13345063.668 -13775282.542 16806244.990 10 0 60068 51300.00000 0 15069370.527 -14646081.760 14442403.172 10 0 60068 52200.00000 0 16451805.782 -15498901.083 11797715.777 10 0 60068 53100.00000 0 17477536.286 -16274797.135 8923540.107 10 0 60068 54000.00000 0 18144881.358 -16914909.358 5875736.863 10 0 60068 54900.00000 0 18465165.881 -17363078.320 2713581.830 10 0 60068 55800.00000 0 18462036.247 -17568368.844 -501392.672 10 0 60068 56700.00000 0 18170268.336 -17487390.015 -3706603.359 10 0 60068 57600.00000 0 17634118.477 -17086312.493 -6839644.152 10 0 60068 58500.00000 0 16905287.963 -16342496.284 -9839511.766 10 0 60068 59400.00000 0 16040588.290 -15245658.718 -12647803.659 10 0 60068 60300.00000 0 15099407.043 -13798532.002 -15209863.842 10 0 60068 61200.00000 0 14141082.796 -12016981.575 -17475853.254 10 0 60068 62100.00000 0 13222301.022 -9929579.513 -19401723.257 10 0 60068 63000.00000 0 12394621.793 -7576650.378 -20950073.035 10 0 60068 63900.00000 0 11702244.094 -5008829.281 -22090874.261 10 0 60068 64800.00000 0 11180101.097 -2285192.331 -22802049.397 10 0 60068 65700.00000 0 10852366.335 528962.512 -23069893.036 10 0 60068 66600.00000 0 10731433.070 3364591.778 -22889328.898 10 0 60068 67500.00000 0 10817408.920 6151537.135 -22263998.397 10 0 60068 68400.00000 0 11098145.973 8821201.403 -21206179.851 10 0 60068 69300.00000 0 11549804.099 11309159.309 -19736540.642 10 0 60068 70200.00000 0 12137922.755 13557595.400 -17883727.691 10 0 60068 71100.00000 0 12818955.345 15517468.922 -15683804.578 10 0 60068 72000.00000 0 13542200.924 17150316.922 -13179546.491 10 0 60068 72900.00000 0 14252051.405 18429621.979 -10419606.772 10 0 60068 73800.00000 0 14890459.470 19341689.274 -7457571.293 10 0 60068 74700.00000 0 15399523.071 19885997.924 -4350918.953 10 0 60068 75600.00000 0 15724077.598 20075013.439 -1159908.401 10 0 60068 76500.00000 0 15814186.704 19933470.751 2053587.507 10 0 60068 77400.00000 0 15627426.776 19497158.974 5227277.061 10 0 60068 78300.00000 0 15130869.012 18811260.007 8299651.878 10 0 60068 79200.00000 0 14302675.657 17928311.423 11211172.854 10 0 60068 80100.00000 0 13133242.931 16905879.520 13905417.323 10 0 60068 81000.00000 0 11625842.149 15804040.315 16330165.673 10 0 60068 81900.00000 0 9796731.377 14682774.074 18438407.017 10 0 60068 82800.00000 0 7674731.813 13599382.354 20189245.035 10 0 60068 83700.00000 0 5300285.221 12606035.394 21548687.134 10 0 60068 84600.00000 0 2724030.070 11747552.191 22490302.229 10 0 60068 85500.00000 0 4953.879 11059505.893 22995734.801 10 0 60069 0.00000 0 -2791803.011 10566733.673 23055065.465 10 0 60069 900.00000 0 -5597404.349 10282313.289 22667010.898 10 0 60069 1800.00000 0 -8341931.473 10207050.107 21838958.813 10 0 60069 2700.00000 0 -10957051.259 10329495.712 20586836.635 10 0 60069 3600.00000 0 -13378625.124 10626498.761 18934815.219 10 0 60069 4500.00000 0 -15549152.761 11064265.443 16914852.267 10 0 60069 5400.00000 0 -17419949.020 11599885.812 14566083.064 10 0 60069 6300.00000 0 -18952963.200 12183262.384 11934069.160 10 0 60069 7200.00000 0 -20122164.526 12759360.054 9069918.724 10 0 60069 8100.00000 0 -20914435.519 13270682.406 6029295.069 10 0 60069 9000.00000 0 -21329935.466 13659869.367 2871332.403 10 0 60069 9900.00000 0 -21381918.544 13872305.521 -342519.792 10 0 60069 10800.00000 0 -21096014.288 13858627.540 -3549700.619 10 0 60069 11700.00000 0 -20509001.087 13577023.164 -6687765.472 10 0 60069 12600.00000 0 -19667125.085 12995222.819 -9695612.442 10 0 60069 13500.00000 0 -18624036.399 12092098.050 -12514682.290 10 0 60069 14400.00000 0 -17438430.851 10858797.740 -15090107.477 10 0 60069 15300.00000 0 -16171497.996 9299372.861 -17371786.849 10 0 60069 16200.00000 0 -14884284.169 7430862.417 -19315364.442 10 0 60069 17100.00000 0 -13635082.657 5282836.202 -20883093.064 10 0 60069 18000.00000 0 -12476961.516 2896413.051 -22044565.882 10 0 60069 18900.00000 0 -11455533.272 322795.403 -22777302.233 10 0 60069 19800.00000 0 -10607060.075 -2378618.797 -23067176.907 10 0 60069 20700.00000 0 -9956973.282 -5142468.217 -22908685.357 10 0 60069 21600.00000 0 -9518868.702 -7899911.470 -22305040.579 10 0 60069 22500.00000 0 -9294018.450 -10581258.690 -21268100.598 10 0 60069 23400.00000 0 -9271418.544 -13118642.321 -19818128.700 10 0 60069 24300.00000 0 -9428368.876 -15448616.830 -17983391.643 10 0 60069 25200.00000 0 -9731559.861 -17514580.084 -15799604.029 10 0 60069 26100.00000 0 -10138618.943 -19268916.741 -13309229.894 10 0 60069 27000.00000 0 -10600050.942 -20674775.617 -10560655.169 10 0 60069 27900.00000 0 -11061489.890 -21707408.369 -7607247.107 10 0 60069 28800.00000 0 -11466166.989 -22355014.944 -4506318.898 10 0 60069 29700.00000 0 -11757490.461 -22619061.951 -1318019.517 10 0 60069 30600.00000 0 -11881628.333 -22514061.854 1895829.814 10 0 60069 31500.00000 0 -11789985.256 -22066823.462 5072930.062 10 0 60069 32400.00000 0 -11441468.978 -21315206.167 8151706.728 10 0 60069 33300.00000 0 -10804450.895 -20306430.826 11072497.131 10 0 60069 34200.00000 0 -9858337.976 -19095018.561 13778699.921 10 0 60069 35100.00000 0 -8594689.549 -17740444.061 16217865.089 10 0 60069 36000.00000 0 -7017831.310 -16304601.537 18342703.977 10 0 60069 36900.00000 0 -5144939.859 -14849189.159 20112000.357 10 0 60069 37800.00000 0 -3005592.842 -13433120.945 21491405.618 10 0 60069 38700.00000 0 -640801.893 -12110073.743 22454103.272 10 0 60069 39600.00000 0 1898433.175 -10926271.327 22981330.296 10 0 60069 40500.00000 0 4552990.693 -9918597.737 23062745.440 10 0 60069 41400.00000 0 7257838.375 -9113118.394 22696637.241 10 0 60069 42300.00000 0 9944499.390 -8524070.758 21889967.256 10 0 60069 43200.00000 0 12543672.465 -8153366.863 20658246.945 10 0 60069 44100.00000 0 14987898.418 -7990628.887 19025249.523 10 0 60069 45000.00000 0 17214163.075 -8013756.746 17022561.222 10 0 60069 45900.00000 0 19166328.674 -8190004.349 14688979.379 10 0 60069 46800.00000 0 20797292.444 -8477519.730 12069767.896 10 0 60069 47700.00000 0 22070781.918 -8827284.385 9215783.605 10 0 60069 48600.00000 0 22962711.388 -9185369.996 6182489.889 10 0 60069 49500.00000 0 23462042.101 -9495416.817 3028876.553 10 0 60069 50400.00000 0 23571109.577 -9701228.130 -183692.810 10 0 60069 51300.00000 0 23305403.987 -9749369.854 -3392682.868 10 0 60069 52200.00000 0 22692812.819 -9591663.836 -6535613.694 10 0 60069 53100.00000 0 21772358.062 -9187467.631 -9551287.852 10 0 60069 54000.00000 0 20592481.771 -8505642.654 -12380992.326 10 0 60069 54900.00000 0 19208953.179 -7526125.835 -14969650.686 10 0 60069 55800.00000 0 17682486.627 -6241036.956 -17266902.061 10 0 60069 56700.00000 0 16076171.730 -4655273.756 -19228085.227 10 0 60069 57600.00000 0 14452824.869 -2786568.763 -20815108.364 10 0 60069 58500.00000 0 12872374.101 -665004.807 -21997187.571 10 0 60069 59400.00000 0 11389387.675 1667990.972 -22751440.173 10 0 60069 60300.00000 0 10050849.763 4161132.819 -23063321.933 10 0 60069 61200.00000 0 8894276.196 6755179.900 -22926900.462 10 0 60069 62100.00000 0 7946248.210 9385178.481 -22344960.405 10 0 60069 63000.00000 0 7221424.338 11982949.610 -21328939.199 10 0 60069 63900.00000 0 6722070.355 14479719.052 -19898695.370 10 0 60069 64800.00000 0 6438125.288 16808780.563 -18082114.472 10 0 60069 65700.00000 0 6347799.068 18908082.351 -15914560.722 10 0 60069 66600.00000 0 6418675.157 20722629.770 -13438185.206 10 0 60069 67500.00000 0 6609270.427 22206605.233 -10701104.275 10 0 60069 68400.00000 0 6870985.546 23325118.009 -7756464.042 10 0 60069 69300.00000 0 7150362.869 24055511.948 -4661409.159 10 0 60069 70200.00000 0 7391556.095 24388177.759 -1475975.829 10 0 60069 71100.00000 0 7538907.146 24326836.873 1738069.641 10 0 60069 72000.00000 0 7539521.416 23888286.118 4918424.236 10 0 60069 72900.00000 0 7345732.653 23101614.809 8003450.703 10 0 60069 73800.00000 0 6917353.524 22006927.663 10933366.019 10 0 60069 74700.00000 0 6223616.911 20653627.477 13651393.203 10 0 60069 75600.00000 0 5244725.891 19098329.556 16104854.661 10 0 60069 76500.00000 0 3972946.721 17402495.034 18246186.513 10 0 60069 77400.00000 0 2413198.119 15629881.732 20033854.876 10 0 60069 78300.00000 0 583110.956 13843918.472 21433157.052 10 0 60069 79200.00000 0 -1487445.633 12105111.807 22416892.711 10 0 60069 80100.00000 0 -3757353.713 10468592.694 22965892.505 10 0 60069 81000.00000 0 -6175712.314 8981904.728 23069394.065 10 0 60069 81900.00000 0 -8683720.501 7683125.657 22725258.026 10 0 60069 82800.00000 0 -11216901.379 6599400.166 21940019.458 10 0 60069 83700.00000 0 -13707576.304 5745944.969 20728772.958 10 0 60069 84600.00000 0 -16087487.895 5125567.814 19114892.625 10 0 60069 85500.00000 0 -18290463.696 4728720.682 17129591.158 10 0 60070 0.00000 0 -20255009.976 4534085.174 14811325.598 10 0 60070 900.00000 0 -21926728.657 4509665.693 12205058.773 10 0 60070 1800.00000 0 -23260453.515 4614344.732 9361393.027 10 0 60070 2700.00000 0 -24222019.232 4799834.292 6335588.282 10 0 60070 3600.00000 0 -24789585.716 5012940.967 3186486.309 10 0 60070 4500.00000 0 -24954462.389 5198048.064 -24638.797 10 0 60070 5400.00000 0 -24721396.965 5299708.719 -3235280.790 10 0 60070 6300.00000 0 -24108316.143 5265238.827 -6382927.785 10 0 60070 7200.00000 0 -23145529.011 5047198.422 -9406289.999 10 0 60070 8100.00000 0 -21874427.012 4605654.753 -12246503.571 10 0 60070 9000.00000 0 -20345735.741 3910129.642 -14848285.832 10 0 60070 9900.00000 0 -18617393.066 2941147.265 -17161018.479 10 0 60070 10800.00000 0 -16752143.733 1691315.680 -19139736.898 10 0 60070 11700.00000 0 -14814952.484 165895.442 -20746006.034 10 0 60070 12600.00000 0 -12870345.066 -1617169.431 -21948665.784 10 0 60070 13500.00000 0 -10979789.078 -3627760.014 -22724431.782 10 0 60070 14400.00000 0 -9199224.436 -5824609.617 -23058340.557 10 0 60070 15300.00000 0 -7576846.451 -8156806.803 -22944031.166 10 0 60070 16200.00000 0 -6151233.433 -10565711.623 -22383858.738 10 0 60070 17100.00000 0 -4949895.861 -12987205.378 -21388838.549 10 0 60070 18000.00000 0 -3988306.248 -15354180.273 -19978422.450 10 0 60070 18900.00000 0 -3269448.497 -17599165.619 -18180112.607 10 0 60070 19800.00000 0 -2783903.730 -19656981.587 -16028920.435 10 0 60070 20700.00000 0 -2510467.092 -21467310.505 -13566681.538 10 0 60070 21600.00000 0 -2417267.935 -22977079.253 -10841240.082 10 0 60070 22500.00000 0 -2463344.751 -24142554.053 -7905518.418 10 0 60070 23400.00000 0 -2600607.356 -24931061.230 -4816490.100 10 0 60070 24300.00000 0 -2776102.749 -25322262.773 -1634076.069 10 0 60070 25200.00000 0 -2934488.412 -25308934.250 1580014.660 10 0 60070 26100.00000 0 -3020608.358 -24897213.453 4763477.379 10 0 60070 27000.00000 0 -2982063.015 -24106310.008 7854614.254 10 0 60070 27900.00000 0 -2771664.460 -22967688.671 10793524.004 10 0 60070 28800.00000 0 -2349673.407 -21523760.826 13523255.999 10 0 60070 29700.00000 0 -1685723.544 -19826138.937 15990906.922 10 0 60070 30600.00000 0 -760351.915 -17933526.774 18148639.375 10 0 60070 31500.00000 0 433929.589 -15909333.101 19954603.316 10 0 60070 32400.00000 0 1892067.462 -13819107.779 21373743.224 10 0 60070 33300.00000 0 3596429.611 -11727906.368 22378475.931 10 0 60070 34200.00000 0 5517301.252 -9697692.216 22949226.468 10 0 60070 35100.00000 0 7613894.853 -7784883.320 23074811.759 10 0 60070 36000.00000 0 9835833.999 -6038145.340 22752664.669 10 0 60070 36900.00000 0 12125051.337 -4496522.047 21988893.624 10 0 60070 37800.00000 0 14418023.462 -3187980.656 20798175.946 10 0 60070 38700.00000 0 16648251.286 -2128432.451 19203485.943 10 0 60070 39600.00000 0 18748883.766 -1321269.554 17235661.845 10 0 60070 40500.00000 0 20655376.369 -757437.224 14932818.747 10 0 60070 41400.00000 0 22308073.568 -416038.710 12339617.744 10 0 60070 42300.00000 0 23654607.216 -265447.280 9506404.494 10 0 60070 43200.00000 0 24652009.783 -264878.439 6488233.325 10 0 60070 44100.00000 0 25268453.015 -366355.653 3343795.535 10 0 60070 45000.00000 0 25484537.968 -516985.872 134273.006 10 0 60070 45900.00000 0 25294081.245 -661447.617 -3077860.019 10 0 60070 46800.00000 0 24704363.550 -744585.023 -6230062.719 10 0 60070 47700.00000 0 23735829.559 -713996.492 -9260955.982 10 0 60070 48600.00000 0 22421251.571 -522506.667 -12111528.015 10 0 60070 49500.00000 0 20804392.342 -130415.450 -14726292.634 10 0 60070 50400.00000 0 18938223.808 492572.646 -17054376.595 10 0 60070 51300.00000 0 16882777.302 1365821.702 -19050514.124 10 0 60070 52200.00000 0 14702716.271 2496705.715 -20675928.900 10 0 60070 53100.00000 0 12464734.021 3880063.495 -21899086.331 10 0 60070 54000.00000 0 10234885.982 5498190.667 -22696301.825 10 0 60070 54900.00000 0 8075968.257 7321369.516 -23052193.866 10 0 60070 55800.00000 0 6045051.836 9308914.664 -22959973.846 10 0 60070 56700.00000 0 4191274.756 11410690.955 -22421567.937 10 0 60070 57600.00000 0 2553983.282 13569040.208 -21447569.439 10 0 60070 58500.00000 0 1161298.241 15721036.462 -20057023.316 10 0 60070 59400.00000 0 29164.592 17800975.770 -18277047.707 10 0 60070 60300.00000 0 -839078.028 19742996.929 -16142300.176 10 0 60070 61200.00000 0 -1452587.833 21483724.130 -13694299.362 10 0 60070 62100.00000 0 -1832383.011 22964821.658 -10980615.338 10 0 60070 63000.00000 0 -2010202.035 24135354.582 -8053944.430 10 0 60070 63900.00000 0 -2026911.649 24953857.369 -4971086.468 10 0 60070 64800.00000 0 -1930530.786 25390024.493 -1791844.224 10 0 60070 65700.00000 0 -1773954.641 25425953.120 1422133.682 10 0 60070 66600.00000 0 -1612475.517 25056886.235 4608544.079 10 0 60070 67500.00000 0 -1501205.405 24291425.760 7705631.833 10 0 60070 68400.00000 0 -1492509.197 23151207.206 10653380.648 10 0 60070 69300.00000 0 -1633556.852 21670049.483 13394669.391 10 0 60070 70200.00000 0 -1964097.703 19892615.444 15876372.017 10 0 60070 71100.00000 0 -2514550.810 17872638.807 18050380.407 10 0 60070 72000.00000 0 -3304491.974 15670790.930 19874530.955 10 0 60070 72900.00000 0 -4341601.588 13352275.649 21313417.645 10 0 60070 73800.00000 0 -5621118.393 10984251.411 22339076.518 10 0 60070 74700.00000 0 -7125823.287 8633187.012 22931528.703 10 0 60070 75600.00000 0 -8826555.456 6362259.857 23079171.745 10 0 60070 76500.00000 0 -10683241.082 4228903.942 22779011.603 10 0 60070 77400.00000 0 -12646393.614 2282608.704 22036730.416 10 0 60070 78300.00000 0 -14659024.889 563059.618 20866588.003 10 0 60070 79200.00000 0 -16658889.111 -901302.492 19291158.045 10 0 60070 80100.00000 0 -18580967.427 -2094243.608 17340902.853 10 0 60070 81000.00000 0 -20360090.292 -3012180.100 15053593.747 10 0 60070 81900.00000 0 -21933588.498 -3664085.219 12473587.070 10 0 60070 82800.00000 0 -23243861.857 -4070862.486 9650968.943 10 0 60070 83700.00000 0 -24240757.356 -4264212.458 6640584.686 10 0 60070 84600.00000 0 -24883656.151 -4285041.000 3500971.475 10 0 60070 85500.00000 0 -25143180.513 -4181476.798 293215.186 99